{"data":{"norad_id":56423,"epoch":"2026-05-24T08:34:27.626880Z","epoch_age_seconds":123841,"freshness":"FRESH","line1":"1 56423U 23061BB  26144.35726420 -.00000622  00000+0 -13520-4 0  9994","line2":"2 56423  43.0007 112.0883 0000744 273.2304  86.8462 15.26736042168538","mean_motion":15.26736042,"eccentricity":7.44e-5,"inclination_deg":43.0007,"raan_deg":112.0883,"arg_perigee_deg":273.2304,"mean_anomaly_deg":86.8462,"bstar":-1.352e-5,"rev_number":16853,"period_min":94.318858033483,"perigee_km":485.06671361025,"apogee_km":486.0880343091,"semimajor_km":6863.7143739597,"source":"CELESTRAK","updated_at":"2026-05-25T13:38:18.064158Z"}}